Bartlesville, OK

11:04 AM CDT on July 24, 2017 (GMT -0500)
Bartlesville Municipal

Weather History for KBVO - October, 2012

Change the Weather History Date:

Thursday, October 4, 2012

  Actual Average Record
Temperature  
Mean Temperature 63 °F -  
Max Temperature 77 °F 81 °F 95 °F (1954)
Min Temperature 50 °F 52 °F 31 °F (1968)
Degree Days  
Heating Degree Days 2    
Growing Degree Days 13 (Base 50)    
Moisture  
Dew Point 51 °F    
Average Humidity 71    
Maximum Humidity 97    
Minimum Humidity 47    
Precipitation  
Precipitation 0.03 in - - ()
Sea Level Pressure  
Sea Level Pressure 30.11 in    
Wind  
Wind Speed 5 mph (NNE)    
Max Wind Speed 18 mph    
Max Gust Speed 17 mph    
Visibility 10 miles    
Events Rain    
Averages and records for this station are not official NWS values.
T = Trace of Precipitation, MM = Missing Value Source: NWS Daily Summary

Daily Weather History Graph

Daily Weather History Graph

Search for Another Location

Airport or City:

Trip Planner

Search our weather history database for the weather conditions in past years. The results will help you decide how hot, cold, wet, or windy it might be!

Date:

Astronomy

Oct. 04, 2012 Rise Set
Actual Time 7:22 AM CDT 7:02 PM CDT
Civil Twilight 6:56 AM CDT 7:28 PM CDT
Nautical Twilight 6:26 AM CDT 7:58 PM CDT
Astronomical Twilight 5:56 AM CDT 8:28 PM CDT
Moon 9:45 PM CDT (10/4) 11:33 AM CDT (10/4)
Length of Visible Light 12h 31m
Length of Day
11h 39m
Waning Gibbous, 82% of the Moon is Illuminated
Oct 4
Waning Gibbous
Oct 8
Last Quarter
Oct 15
New
Oct 21
First Quarter
Oct 29
Full

Hourly Weather History & Observations

Time (CDT) Temp. Dew Point Humidity Pressure Visibility Wind Dir Wind Speed Gust Speed Precip Events Conditions
12:53 AM 61.0 °F 52.0 °F 72% 29.98 in 10.0 mi SSE 4.6 mph - N/A   Clear
1:53 AM 62.1 °F 52.0 °F 70% 29.98 in 10.0 mi South 5.8 mph - N/A   Clear
2:53 AM 59.0 °F 52.0 °F 78% 30.00 in 10.0 mi Calm Calm - N/A   Clear
3:53 AM 52.0 °F 50.0 °F 93% 30.01 in 10.0 mi Calm Calm - N/A   Clear
4:53 AM 55.0 °F 52.0 °F 89% 30.06 in 10.0 mi Calm Calm - N/A   Clear
5:53 AM 53.1 °F 51.1 °F 93% 30.08 in 10.0 mi Calm Calm - N/A   Clear
6:53 AM 52.0 °F 51.1 °F 97% 30.09 in 10.0 mi Calm Calm - N/A   Clear
7:53 AM 53.1 °F 52.0 °F 96% 30.12 in 8.0 mi Calm Calm - N/A   Mostly Cloudy
8:53 AM 62.1 °F 55.9 °F 80% 30.14 in 10.0 mi Calm Calm - N/A   Overcast
9:53 AM 68.0 °F 55.0 °F 63% 30.14 in 10.0 mi Variable 3.5 mph - N/A   Mostly Cloudy
10:53 AM 75.0 °F 55.0 °F 50% 30.13 in 10.0 mi Variable 4.6 mph - N/A   Mostly Cloudy
11:53 AM 70.0 °F 54.0 °F 57% 30.16 in 10.0 mi Variable 4.6 mph - N/A   Overcast
12:53 PM 71.1 °F 51.1 °F 49% 30.16 in 10.0 mi North 10.4 mph - N/A   Mostly Cloudy
1:53 PM 71.1 °F 50.0 °F 47% 30.14 in 10.0 mi NNE 11.5 mph 17.3 mph N/A   Overcast
2:53 PM 70.0 °F 48.9 °F 47% 30.14 in 10.0 mi North 12.7 mph - N/A   Overcast
3:53 PM 70.0 °F 48.9 °F 47% 30.14 in 10.0 mi NNE 18.4 mph - N/A   Overcast
4:53 PM 69.1 °F 48.0 °F 47% 30.14 in 10.0 mi NNE 15.0 mph - N/A   Overcast
5:53 PM 64.0 °F 48.0 °F 56% 30.14 in 10.0 mi North 12.7 mph - N/A   Overcast
6:53 PM 63.0 °F 46.9 °F 56% 30.16 in 10.0 mi Variable 6.9 mph - N/A   Overcast
9:53 PM 52.0 °F 46.9 °F 83% 30.20 in 10.0 mi North 6.9 mph - 0.00 in Rain Light Rain
10:53 PM 51.1 °F 48.0 °F 89% 30.20 in 10.0 mi North 4.6 mph - 0.00 in   Overcast
11:53 PM 50.0 °F 48.0 °F 93% 30.19 in 9.0 mi North 4.6 mph - 0.03 in Rain Light Rain